Location: Unspecified
(43.4354°N, 0.0000°E)
Time: 22:33:23
(UTC+00:00)

Tiros 1 despin weight - Pass Details

Date: 03 July 2019
Orbit: 594 x 642 km, 48.2° (Epoch: 15 July)

Event Time Altitude Azimuth Distance (km) Brightness Sun altitude
Rises 23:39:54 0° 294° (WNW) 2,861 ? -23.4°
Reaches altitude 10° 23:42:13 10° 294° (WNW) 1,949 ? -23.5°
Enters shadow 23:46:33 83° 256° (WSW) 607 ? -23.5°
